Weather History for KBTV - October, 2013

Change the Weather History Date:

Monday, October 21, 2013

  Actual Average Record
Temperature  
Mean Temperature 50 °F 46 °F  
Max Temperature 63 °F 55 °F 76 °F (1995)
Min Temperature 36 °F 37 °F 20 °F (1972)
Degree Days  
Heating Degree Days 15 19  
Month to date heating degree days 169 319  
Since 1 July heating degree days 380 536  
Cooling Degree Days 0 0  
Month to date cooling degree days 4 0  
Year to date cooling degree days 662 489  
Moisture  
Dew Point 38 °F    
Average Humidity 67    
Maximum Humidity 92    
Minimum Humidity 42    
Precipitation  
Precipitation 0.00 in 0.11 in 2.10 in (1885)
Month to date precipitation 2.32 2.49  
Year to date precipitation 39.75 30.20  
Snow  
Snow 0.00 in 0.00 in 3.60 in (1926)
Month to date snowfall 0.0 0.1  
Since 1 July snowfall 0.0 0.1  
Since 1 September snowfall 0.0 0.1  
Snow Depth 0.00 in    
Sea Level Pressure  
Sea Level Pressure 29.97 in    
Wind  
Wind Speed 9 mph (South)    
Max Wind Speed 22 mph    
Max Gust Speed 31 mph    
Visibility 10 miles    
Events      
T = Trace of Precipitation, MM = Missing Value Source: NWS Daily Summary

Daily Weather History Graph

Daily Weather History Graph

Search for Another Location

Airport or City:

Trip Planner

Search our weather history database for the weather conditions in past years. The results will help you decide how hot, cold, wet, or windy it might be!

Date:

Astronomy

Oct. 21, 2013 Rise Set
Actual Time 7:15 AM EDT 5:57 PM EDT
Civil Twilight 6:46 AM EDT 6:27 PM EDT
Nautical Twilight 6:12 AM EDT 7:01 PM EDT
Astronomical Twilight 5:38 AM EDT 7:34 PM EDT
Moon 7:43 PM EDT (10/21) 9:53 AM EDT (10/21)
Length of Visible Light 11h 41m
Length of Day
10h 42m
Waning Gibbous, 93% of the Moon is Illuminated
Oct 21
Waning Gibbous
Oct 26
Last Quarter
Nov 3
New
Nov 10
First Quarter
Nov 17
Full

Hourly Weather History & Observations

Time (EDT) Temp. Windchill Dew Point Humidity Pressure Visibility Wind Dir Wind Speed Gust Speed Precip Events Conditions
12:54 AM 39.9 °F - 35.1 °F 83% 30.00 in 10.0 mi Calm Calm - N/A   Clear
1:54 AM 39.0 °F - 35.1 °F 86% 30.01 in 10.0 mi Calm Calm - N/A   Clear
2:54 AM 37.9 °F 35.5 °F 34.0 °F 86% 30.01 in 10.0 mi ENE 3.5 mph - N/A   Clear
3:54 AM 37.9 °F 33.5 °F 35.1 °F 89% 30.02 in 10.0 mi NE 5.8 mph - N/A   Clear
4:54 AM 37.9 °F - 35.1 °F 89% 30.03 in 10.0 mi Calm Calm - N/A   Clear
5:54 AM 37.0 °F - 34.0 °F 89% 30.04 in 10.0 mi Calm Calm - N/A   Scattered Clouds
6:54 AM 37.9 °F - 35.1 °F 89% 30.04 in 10.0 mi Calm Calm - N/A   Scattered Clouds
7:54 AM 37.0 °F - 35.1 °F 93% 30.06 in 10.0 mi Calm Calm - N/A   Partly Cloudy
8:54 AM 42.1 °F - 37.9 °F 85% 30.06 in 10.0 mi Calm Calm - N/A   Scattered Clouds
9:54 AM 50.0 °F - 39.0 °F 66% 30.05 in 10.0 mi South 9.2 mph - N/A   Mostly Cloudy
10:54 AM 54.0 °F - 39.9 °F 59% 30.03 in 10.0 mi South 8.1 mph - N/A   Mostly Cloudy
11:54 AM 55.9 °F - 39.9 °F 55% 30.00 in 10.0 mi South 12.7 mph 18.4 mph N/A   Scattered Clouds
12:54 PM 59.0 °F - 41.0 °F 51% 29.97 in 10.0 mi South 12.7 mph 17.3 mph N/A   Scattered Clouds
1:54 PM 61.0 °F - 41.0 °F 48% 29.94 in 10.0 mi South 19.6 mph 26.5 mph N/A   Scattered Clouds
2:54 PM 61.0 °F - 41.0 °F 48% 29.94 in 10.0 mi South 12.7 mph 24.2 mph N/A   Partly Cloudy
3:54 PM 62.1 °F - 41.0 °F 46% 29.92 in 10.0 mi SSE 13.8 mph 20.7 mph N/A   Scattered Clouds
4:54 PM 62.1 °F - 39.9 °F 44% 29.91 in 10.0 mi South 11.5 mph 18.4 mph N/A   Scattered Clouds
5:54 PM 60.1 °F - 39.9 °F 47% 29.92 in 10.0 mi South 11.5 mph - N/A   Partly Cloudy
6:54 PM 59.0 °F - 39.0 °F 48% 29.91 in 10.0 mi South 10.4 mph - N/A   Clear
7:54 PM 60.1 °F - 37.9 °F 44% 29.90 in 10.0 mi South 9.2 mph - N/A   Clear
8:54 PM 59.0 °F - 37.9 °F 46% 29.88 in 10.0 mi SSE 5.8 mph - N/A   Partly Cloudy
9:54 PM 60.1 °F - 37.9 °F 44% 29.88 in 10.0 mi South 13.8 mph 24.2 mph N/A   Clear
10:54 PM 60.1 °F - 37.9 °F 44% 29.86 in 10.0 mi South 16.1 mph 23.0 mph N/A   Clear
11:54 PM 59.0 °F - 37.0 °F 44% 29.84 in 10.0 mi South 17.3 mph 29.9 mph N/A   Clear